Time,TemperatureF,DewpointF,PressureIn,WindDirection,WindDirectionDegrees,WindSpeedMPH,WindSpeedGustMPH,Humidity,HourlyPrecipIn,Conditions,Clouds,dailyrainin,SoftwareType,DateUTC
2013-03-02 00:04:00,29.3,21.0,30.27,ENE,77,1.2,1.5,76,0.00,,,0.00,TxWx,2013-03-02 06:04:00,
2013-03-02 00:10:00,29.2,22.0,30.27,NE,53,1.8,1.8,77,0.00,,,0.00,TxWx,2013-03-02 06:10:00,
2013-03-02 00:15:00,29.1,21.0,30.27,ENE,71,3.3,3.3,76,0.00,,,0.00,TxWx,2013-03-02 06:15:00,
2013-03-02 00:20:00,29.1,21.0,30.27,ENE,71,3.9,3.9,76,0.00,,,0.00,TxWx,2013-03-02 06:20:00,
2013-03-02 00:25:00,29.0,21.0,30.27,East,83,1.5,2.1,76,0.00,,,0.00,TxWx,2013-03-02 06:25:00,
2013-03-02 00:30:00,28.9,21.0,30.27,NE,56,0.9,1.2,75,0.00,,,0.00,TxWx,2013-03-02 06:30:00,
2013-03-02 00:36:00,28.8,21.0,30.28,East,88,0.6,0.6,75,0.00,,,0.00,TxWx,2013-03-02 06:36:00,
2013-03-02 00:41:00,28.7,21.0,30.28,ENE,76,1.8,2.1,75,0.00,,,0.00,TxWx,2013-03-02 06:41:00,
2013-03-02 00:46:00,28.6,21.0,30.27,ESE,102,2.1,2.7,75,0.00,,,0.00,TxWx,2013-03-02 06:46:00,
2013-03-02 00:52:00,28.5,21.0,30.27,ENE,64,2.1,2.1,74,0.00,,,0.00,TxWx,2013-03-02 06:52:00,
2013-03-02 00:57:00,28.5,21.0,30.27,ENE,62,2.1,2.4,74,0.00,,,0.00,TxWx,2013-03-02 06:57:00,
2013-03-02 01:02:00,28.6,20.0,30.28,ENE,77,0.3,0.3,73,0.00,,,0.00,TxWx,2013-03-02 07:02:00,
2013-03-02 01:07:00,28.4,19.0,30.28,ENE,72,3.3,3.3,73,0.00,,,0.00,TxWx,2013-03-02 07:07:00,
2013-03-02 01:12:00,28.3,19.0,30.28,ENE,58,0.9,0.9,72,0.00,,,0.00,TxWx,2013-03-02 07:12:00,
2013-03-02 01:17:00,28.3,19.0,30.28,East,94,0.0,0.3,71,0.00,,,0.00,TxWx,2013-03-02 07:17:00,
2013-03-02 01:23:00,28.2,19.0,30.27,ENE,73,1.8,1.8,71,0.00,,,0.00,TxWx,2013-03-02 07:23:00,
2013-03-02 01:28:00,28.1,19.0,30.27,SW,214,3.3,3.6,71,0.00,,,0.00,TxWx,2013-03-02 07:28:00,
2013-03-02 01:33:00,28.1,18.0,30.27,NE,46,0.9,0.9,70,0.00,,,0.00,TxWx,2013-03-02 07:33:00,
2013-03-02 01:38:00,28.0,19.0,30.27,NE,50,0.9,1.2,71,0.00,,,0.00,TxWx,2013-03-02 07:38:00,
2013-03-02 01:43:00,28.0,19.0,30.27,NE,54,2.7,2.7,71,0.00,,,0.00,TxWx,2013-03-02 07:43:00,
2013-03-02 01:49:00,28.0,19.0,30.27,SSW,204,1.2,1.2,71,0.00,,,0.00,TxWx,2013-03-02 07:49:00,
2013-03-02 01:54:00,28.0,19.0,30.27,NE,55,0.6,0.6,71,0.00,,,0.00,TxWx,2013-03-02 07:54:00,
2013-03-02 01:59:00,27.9,19.0,30.27,East,79,0.6,0.6,71,0.00,,,0.00,TxWx,2013-03-02 07:59:00,
2013-03-02 02:04:00,28.0,19.0,30.27,NE,49,0.6,0.6,71,0.00,,,0.00,TxWx,2013-03-02 08:04:00,
2013-03-02 02:09:00,27.9,19.0,30.27,NE,52,1.8,2.1,71,0.00,,,0.00,TxWx,2013-03-02 08:09:00,
2013-03-02 02:14:00,27.9,19.0,30.27,NNW,334,1.2,1.5,71,0.00,,,0.00,TxWx,2013-03-02 08:14:00,
2013-03-02 02:19:00,27.9,19.0,30.27,NE,46,0.9,0.9,71,0.00,,,0.00,TxWx,2013-03-02 08:19:00,
2013-03-02 02:25:00,27.9,19.0,30.27,ENE,57,0.6,0.6,71,0.00,,,0.00,TxWx,2013-03-02 08:25:00,
2013-03-02 02:30:00,27.8,19.0,30.26,ENE,77,1.2,1.2,71,0.00,,,0.00,TxWx,2013-03-02 08:30:00,
2013-03-02 02:35:00,27.8,19.0,30.27,SSW,211,0.6,0.9,71,0.00,,,0.00,TxWx,2013-03-02 08:35:00,
2013-03-02 02:40:00,27.9,19.0,30.27,SSW,198,1.5,1.5,71,0.00,,,0.00,TxWx,2013-03-02 08:40:00,
2013-03-02 02:45:00,27.8,19.0,30.27,ENE,62,1.2,1.2,71,0.00,,,0.00,TxWx,2013-03-02 08:45:00,
2013-03-02 02:50:00,27.8,19.0,30.26,ENE,64,0.6,0.6,71,0.00,,,0.00,TxWx,2013-03-02 08:50:00,
2013-03-02 02:55:00,27.8,19.0,30.27,SSW,203,3.0,3.0,72,0.00,,,0.00,TxWx,2013-03-02 08:55:00,
2013-03-02 03:01:00,27.8,19.0,30.26,SSW,208,0.3,0.6,72,0.00,,,0.00,TxWx,2013-03-02 09:01:00,
2013-03-02 03:06:00,27.9,19.0,30.27,SSW,196,1.2,1.2,72,0.00,,,0.00,TxWx,2013-03-02 09:06:00,
2013-03-02 03:11:00,27.7,19.0,30.27,ENE,60,0.9,0.9,72,0.00,,,0.00,TxWx,2013-03-02 09:11:00,
2013-03-02 03:16:00,27.9,19.0,30.27,ENE,59,0.0,0.0,72,0.00,,,0.00,TxWx,2013-03-02 09:16:00,
2013-03-02 03:21:00,27.7,19.0,30.26,ENE,59,0.6,0.6,72,0.00,,,0.00,TxWx,2013-03-02 09:21:00,
2013-03-02 03:26:00,27.7,19.0,30.27,SSW,203,1.8,1.8,72,0.00,,,0.00,TxWx,2013-03-02 09:26:00,
2013-03-02 03:31:00,27.7,19.0,30.27,NE,46,0.6,0.6,72,0.00,,,0.00,TxWx,2013-03-02 09:31:00,
2013-03-02 03:37:00,27.8,19.0,30.27,SW,218,0.6,0.6,71,0.00,,,0.00,TxWx,2013-03-02 09:37:00,
2013-03-02 03:42:00,27.8,19.0,30.26,NE,53,0.6,0.6,71,0.00,,,0.00,TxWx,2013-03-02 09:42:00,
2013-03-02 03:47:00,27.8,19.0,30.26,SSW,202,1.2,1.2,71,0.00,,,0.00,TxWx,2013-03-02 09:47:00,
2013-03-02 03:52:00,27.8,19.0,30.26,SSW,196,1.5,1.5,72,0.00,,,0.00,TxWx,2013-03-02 09:52:00,
2013-03-02 03:57:00,27.8,19.0,30.26,SSW,201,1.2,1.2,72,0.00,,,0.00,TxWx,2013-03-02 09:57:00,
2013-03-02 04:02:00,27.7,19.0,30.26,WNW,300,1.2,1.5,72,0.00,,,0.00,TxWx,2013-03-02 10:02:00,
2013-03-02 04:10:00,27.7,19.0,30.26,South,188,2.1,2.4,71,0.00,,,0.00,TxWx,2013-03-02 10:10:00,
2013-03-02 04:15:00,27.7,19.0,30.26,South,188,2.1,2.1,72,0.00,,,0.00,TxWx,2013-03-02 10:15:00,
2013-03-02 04:20:00,27.7,19.0,30.27,South,179,3.0,3.0,73,0.00,,,0.00,TxWx,2013-03-02 10:20:00,
2013-03-02 04:26:00,27.7,20.0,30.27,South,179,2.4,2.7,75,0.00,,,0.00,TxWx,2013-03-02 10:26:00,
2013-03-02 04:31:00,27.7,20.0,30.27,South,187,3.0,3.0,76,0.00,,,0.00,TxWx,2013-03-02 10:31:00,
2013-03-02 04:36:00,27.7,20.0,30.27,South,184,1.8,1.8,75,0.00,,,0.00,TxWx,2013-03-02 10:36:00,
2013-03-02 04:41:00,27.7,20.0,30.27,South,176,1.8,1.8,74,0.00,,,0.00,TxWx,2013-03-02 10:41:00,
2013-03-02 04:47:00,27.6,20.0,30.26,South,174,4.2,4.2,75,0.00,,,0.00,TxWx,2013-03-02 10:47:00,
2013-03-02 04:52:00,27.7,20.0,30.26,South,184,5.7,6.0,76,0.00,,,0.00,TxWx,2013-03-02 10:52:00,
2013-03-02 04:57:00,27.8,21.0,30.27,SSW,197,4.5,4.5,78,0.00,,,0.00,TxWx,2013-03-02 10:57:00,
2013-03-02 05:03:00,28.0,22.0,30.26,SSW,199,8.4,9.3,81,0.00,,,0.00,TxWx,2013-03-02 11:03:00,
2013-03-02 05:08:00,28.0,22.0,30.26,SSW,197,6.6,6.6,81,0.00,,,0.00,TxWx,2013-03-02 11:08:00,
2013-03-02 05:13:00,28.0,22.0,30.26,SSW,192,5.7,5.7,81,0.00,,,0.00,TxWx,2013-03-02 11:13:00,
2013-03-02 05:18:00,28.2,21.0,30.27,South,190,9.9,11.4,77,0.00,,,0.00,TxWx,2013-03-02 11:18:00,
2013-03-02 05:23:00,28.2,21.0,30.27,SSW,192,12.3,12.3,77,0.00,,,0.00,TxWx,2013-03-02 11:23:00,
2013-03-02 05:28:00,28.3,21.0,30.27,SSW,199,11.7,11.7,77,0.00,,,0.00,TxWx,2013-03-02 11:28:00,
2013-03-02 05:34:00,28.2,20.0,30.26,SSW,196,12.3,14.1,76,0.00,,,0.00,TxWx,2013-03-02 11:34:00,
2013-03-02 05:39:00,28.2,19.0,30.26,South,190,9.6,10.5,73,0.00,,,0.00,TxWx,2013-03-02 11:39:00,
2013-03-02 05:44:00,28.2,19.0,30.27,South,188,9.6,10.2,73,0.00,,,0.00,TxWx,2013-03-02 11:44:00,
2013-03-02 05:49:00,28.2,20.0,30.27,South,190,10.2,13.5,74,0.00,,,0.00,TxWx,2013-03-02 11:49:00,
2013-03-02 05:54:00,28.2,19.0,30.27,SSW,202,8.1,8.1,73,0.00,,,0.00,TxWx,2013-03-02 11:54:00,
2013-03-02 06:00:00,28.2,19.0,30.27,SSW,201,9.6,9.6,73,0.00,,,0.00,TxWx,2013-03-02 12:00:00,
2013-03-02 06:05:00,28.1,20.0,30.27,SSW,200,13.2,13.2,74,0.00,,,0.00,TxWx,2013-03-02 12:05:00,
2013-03-02 06:10:00,28.1,20.0,30.27,SSW,200,11.1,11.1,74,0.00,,,0.00,TxWx,2013-03-02 12:10:00,
2013-03-02 06:16:00,28.1,20.0,30.27,South,190,5.7,6.6,75,0.00,,,0.00,TxWx,2013-03-02 12:16:00,
2013-03-02 06:21:00,28.1,20.0,30.27,SSW,195,3.6,3.6,75,0.00,,,0.00,TxWx,2013-03-02 12:21:00,
2013-03-02 06:26:00,28.0,20.0,30.27,SSW,193,9.6,11.1,74,0.00,,,0.00,TxWx,2013-03-02 12:26:00,
2013-03-02 06:31:00,28.0,19.0,30.27,SSW,201,9.3,9.3,73,0.00,,,0.00,TxWx,2013-03-02 12:31:00,
2013-03-02 06:36:00,28.0,19.0,30.27,SSW,192,8.1,8.4,73,0.00,,,0.00,TxWx,2013-03-02 12:36:00,
2013-03-02 06:41:00,28.0,20.0,30.28,SSW,200,11.4,11.4,74,0.00,,,0.00,TxWx,2013-03-02 12:41:00,
2013-03-02 06:47:00,28.0,20.0,30.28,SSW,202,11.4,11.4,74,0.00,,,0.00,TxWx,2013-03-02 12:47:00,
2013-03-02 06:52:00,28.0,20.0,30.28,SSW,199,11.1,11.1,74,0.00,,,0.00,TxWx,2013-03-02 12:52:00,
2013-03-02 06:57:00,28.1,20.0,30.28,SSW,203,5.7,6.6,74,0.00,,,0.00,TxWx,2013-03-02 12:57:00,
2013-03-02 07:02:00,28.1,20.0,30.28,SW,214,6.6,8.4,74,0.00,,,0.00,TxWx,2013-03-02 13:02:00,
2013-03-02 07:07:00,28.2,20.0,30.28,SSW,206,10.2,11.1,75,0.00,,,0.00,TxWx,2013-03-02 13:07:00,
2013-03-02 07:12:00,28.2,20.0,30.28,SSW,193,10.2,10.2,74,0.00,,,0.00,TxWx,2013-03-02 13:12:00,
2013-03-02 07:17:00,28.2,20.0,30.28,SSW,200,5.4,5.4,75,0.00,,,0.00,TxWx,2013-03-02 13:17:00,
2013-03-02 07:23:00,28.2,20.0,30.28,SSW,194,8.7,9.3,76,0.00,,,0.00,TxWx,2013-03-02 13:23:00,
2013-03-02 07:28:00,28.3,20.0,30.28,SSW,202,5.7,6.6,76,0.00,,,0.00,TxWx,2013-03-02 13:28:00,
2013-03-02 07:33:00,28.3,20.0,30.28,SSW,198,9.3,9.3,75,0.00,,,0.00,TxWx,2013-03-02 13:33:00,
2013-03-02 07:38:00,28.4,20.0,30.28,SW,216,7.8,7.8,75,0.00,,,0.00,TxWx,2013-03-02 13:38:00,
2013-03-02 07:43:00,28.5,21.0,30.28,SSW,204,8.4,9.3,75,0.00,,,0.00,TxWx,2013-03-02 13:43:00,
2013-03-02 07:49:00,28.6,21.0,30.28,SSW,201,9.9,9.9,76,0.00,,,0.00,TxWx,2013-03-02 13:49:00,
2013-03-02 07:54:00,28.7,21.0,30.28,SSW,194,12.0,12.0,75,0.00,,,0.00,TxWx,2013-03-02 13:54:00,
2013-03-02 07:59:00,28.9,21.0,30.29,SSW,199,12.0,12.0,74,0.00,,,0.00,TxWx,2013-03-02 13:59:00,
2013-03-02 08:04:00,28.9,21.0,30.28,SSW,199,18.0,18.0,74,0.00,,,0.00,TxWx,2013-03-02 14:04:00,
2013-03-02 08:09:00,28.8,20.0,30.28,SSW,194,11.1,11.1,72,0.00,,,0.00,TxWx,2013-03-02 14:09:00,
2013-03-02 08:14:00,28.8,20.0,30.29,South,184,11.4,11.4,72,0.00,,,0.00,TxWx,2013-03-02 14:14:00,
2013-03-02 08:19:00,28.8,19.0,30.29,SSW,201,9.0,9.0,69,0.00,,,0.00,TxWx,2013-03-02 14:19:00,
2013-03-02 08:25:00,28.8,19.0,30.29,South,185,9.3,12.0,70,0.00,,,0.00,TxWx,2013-03-02 14:25:00,
2013-03-02 08:30:00,28.9,19.0,30.29,South,187,6.6,7.5,70,0.00,,,0.00,TxWx,2013-03-02 14:30:00,
2013-03-02 08:35:00,28.9,19.0,30.28,SSW,195,10.2,10.2,70,0.00,,,0.00,TxWx,2013-03-02 14:35:00,
2013-03-02 08:40:00,28.9,20.0,30.29,South,186,5.7,7.2,72,0.00,,,0.00,TxWx,2013-03-02 14:40:00,
2013-03-02 08:45:00,28.9,20.0,30.29,SSW,199,18.0,18.0,71,0.00,,,0.00,TxWx,2013-03-02 14:45:00,
2013-03-02 08:51:00,29.0,20.0,30.29,South,191,12.6,14.7,71,0.00,,,0.00,TxWx,2013-03-02 14:51:00,
2013-03-02 08:56:00,29.0,20.0,30.29,SSW,193,13.8,14.1,71,0.00,,,0.00,TxWx,2013-03-02 14:56:00,
2013-03-02 09:01:00,29.1,20.0,30.29,South,186,11.1,13.2,71,0.00,,,0.00,TxWx,2013-03-02 15:01:00,
2013-03-02 09:06:00,29.2,20.0,30.29,South,189,8.4,8.7,71,0.00,,,0.00,TxWx,2013-03-02 15:06:00,
2013-03-02 09:11:00,29.2,19.0,30.29,SSW,201,15.9,18.9,69,0.00,,,0.00,TxWx,2013-03-02 15:11:00,
2013-03-02 09:17:00,29.3,19.0,30.29,South,187,10.5,11.1,70,0.00,,,0.00,TxWx,2013-03-02 15:17:00,
2013-03-02 09:22:00,29.4,19.0,30.28,SSW,198,11.4,12.9,69,0.00,,,0.00,TxWx,2013-03-02 15:22:00,
2013-03-02 09:27:00,29.4,19.0,30.29,South,186,9.9,14.7,69,0.00,,,0.00,TxWx,2013-03-02 15:27:00,
2013-03-02 09:32:00,29.5,19.0,30.28,SW,214,8.1,9.3,69,0.00,,,0.00,TxWx,2013-03-02 15:32:00,
2013-03-02 09:37:00,29.7,20.0,30.28,SSW,199,11.1,11.1,69,0.00,,,0.00,TxWx,2013-03-02 15:37:00,
2013-03-02 09:42:00,29.8,20.0,30.28,SSW,201,9.3,9.3,68,0.00,,,0.00,TxWx,2013-03-02 15:42:00,
2013-03-02 09:47:00,29.7,21.0,30.28,SSW,204,11.4,11.7,71,0.00,,,0.00,TxWx,2013-03-02 15:47:00,
2013-03-02 09:52:00,29.4,20.0,30.28,South,188,3.9,3.9,73,0.00,,,0.00,TxWx,2013-03-02 15:52:00,
2013-03-02 09:57:00,29.3,21.0,30.28,South,191,4.5,5.1,74,0.00,,,0.00,TxWx,2013-03-02 15:57:00,
2013-03-02 10:03:00,29.3,22.0,30.28,SSW,194,7.5,10.2,79,0.00,,,0.00,TxWx,2013-03-02 16:03:00,
2013-03-02 10:08:00,28.3,24.0,30.28,South,178,13.5,15.3,87,0.00,,,0.00,TxWx,2013-03-02 16:08:00,
2013-03-02 10:13:00,27.9,24.0,30.29,South,182,13.2,16.5,90,0.00,,,0.00,TxWx,2013-03-02 16:13:00,
2013-03-02 10:18:00,27.7,25.0,30.29,South,180,9.0,9.0,92,0.00,,,0.00,TxWx,2013-03-02 16:18:00,
2013-03-02 10:23:00,27.7,25.0,30.29,SSW,195,10.2,10.2,93,0.00,,,0.00,TxWx,2013-03-02 16:23:00,
2013-03-02 10:29:00,27.5,24.0,30.29,South,185,10.5,10.5,92,0.00,,,0.00,TxWx,2013-03-02 16:29:00,
2013-03-02 10:34:00,27.4,24.0,30.29,South,175,10.2,11.4,92,0.00,,,0.00,TxWx,2013-03-02 16:34:00,
2013-03-02 10:39:00,27.3,24.0,30.29,South,188,9.9,9.9,92,0.00,,,0.00,TxWx,2013-03-02 16:39:00,
2013-03-02 10:44:00,27.2,24.0,30.29,South,182,7.8,7.8,93,0.00,,,0.00,TxWx,2013-03-02 16:44:00,
2013-03-02 10:49:00,27.1,24.0,30.29,South,184,12.3,12.3,92,0.00,,,0.00,TxWx,2013-03-02 16:49:00,
2013-03-02 10:54:00,27.1,24.0,30.29,South,182,10.2,10.2,92,0.00,,,0.00,TxWx,2013-03-02 16:54:00,
2013-03-02 10:59:00,27.2,23.0,30.29,South,169,13.5,14.4,90,0.00,,,0.00,TxWx,2013-03-02 16:59:00,
2013-03-02 11:05:00,27.5,23.0,30.29,South,177,12.6,13.2,90,0.00,,,0.00,TxWx,2013-03-02 17:05:00,
2013-03-02 11:10:00,27.7,24.0,30.29,South,176,12.3,12.3,89,0.00,,,0.00,TxWx,2013-03-02 17:10:00,
2013-03-02 11:15:00,27.9,24.0,30.29,South,182,9.6,9.6,89,0.00,,,0.00,TxWx,2013-03-02 17:15:00,
2013-03-02 11:21:00,27.5,23.0,30.29,South,178,14.7,14.7,88,0.00,,,0.00,TxWx,2013-03-02 17:21:00,
2013-03-02 11:26:00,27.6,24.0,30.29,South,177,12.9,13.8,89,0.00,,,0.00,TxWx,2013-03-02 17:26:00,
2013-03-02 11:31:00,27.6,24.0,30.29,South,173,11.4,11.4,89,0.00,,,0.00,TxWx,2013-03-02 17:31:00,
2013-03-02 11:36:00,27.3,23.0,30.29,South,179,15.6,15.6,90,0.00,,,0.00,TxWx,2013-03-02 17:36:00,
2013-03-02 11:41:00,27.1,24.0,30.29,South,183,12.0,14.1,91,0.00,,,0.00,TxWx,2013-03-02 17:41:00,
2013-03-02 11:46:00,27.2,24.0,30.29,South,175,12.3,12.9,91,0.00,,,0.00,TxWx,2013-03-02 17:46:00,
2013-03-02 11:52:00,27.2,23.0,30.29,South,177,11.7,13.2,90,0.00,,,0.00,TxWx,2013-03-02 17:52:00,
2013-03-02 11:57:00,27.5,24.0,30.28,South,170,8.4,8.4,90,0.00,,,0.00,TxWx,2013-03-02 17:57:00,
2013-03-02 12:02:00,27.6,24.0,30.28,South,181,6.0,6.3,89,0.00,,,0.00,TxWx,2013-03-02 18:02:00,
2013-03-02 12:07:00,27.7,24.0,30.28,South,185,7.2,7.8,89,0.00,,,0.00,TxWx,2013-03-02 18:07:00,
2013-03-02 12:12:00,27.8,24.0,30.28,South,189,7.8,7.8,89,0.00,,,0.00,TxWx,2013-03-02 18:12:00,
2013-03-02 12:17:00,27.8,24.0,30.28,SSW,200,8.4,8.4,88,0.00,,,0.00,TxWx,2013-03-02 18:17:00,
2013-03-02 12:23:00,27.7,24.0,30.28,South,184,7.2,8.4,88,0.00,,,0.00,TxWx,2013-03-02 18:23:00,
2013-03-02 12:28:00,27.6,24.0,30.28,South,186,11.4,11.4,88,0.00,,,0.00,TxWx,2013-03-02 18:28:00,
2013-03-02 12:33:00,27.4,23.0,30.27,South,187,9.3,9.6,88,0.00,,,0.00,TxWx,2013-03-02 18:33:00,
2013-03-02 12:38:00,26.9,23.0,30.27,South,188,10.5,12.3,90,0.00,,,0.00,TxWx,2013-03-02 18:38:00,
2013-03-02 12:43:00,27.1,24.0,30.28,South,181,9.6,9.9,92,0.00,,,0.00,TxWx,2013-03-02 18:43:00,
2013-03-02 12:48:00,27.2,24.0,30.27,SSW,196,10.5,10.5,92,0.00,,,0.00,TxWx,2013-03-02 18:48:00,
2013-03-02 12:53:00,26.9,24.0,30.27,South,187,10.2,10.5,92,0.00,,,0.00,TxWx,2013-03-02 18:53:00,
2013-03-02 12:58:00,26.9,24.0,30.27,South,191,7.8,7.8,93,0.00,,,0.00,TxWx,2013-03-02 18:58:00,
2013-03-02 13:03:00,26.9,24.0,30.27,South,184,8.4,8.4,92,0.00,,,0.00,TxWx,2013-03-02 19:03:00,
2013-03-02 13:08:00,27.0,24.0,30.27,South,178,12.0,12.3,91,0.00,,,0.00,TxWx,2013-03-02 19:08:00,
2013-03-02 13:14:00,27.1,24.0,30.27,South,183,11.4,11.4,91,0.00,,,0.00,TxWx,2013-03-02 19:14:00,
2013-03-02 13:19:00,27.0,23.0,30.27,South,182,14.1,15.9,90,0.00,,,0.00,TxWx,2013-03-02 19:19:00,
2013-03-02 13:24:00,27.0,23.0,30.27,South,188,8.7,9.0,90,0.00,,,0.00,TxWx,2013-03-02 19:24:00,
2013-03-02 13:29:00,27.1,23.0,30.27,South,188,12.6,14.7,90,0.00,,,0.00,TxWx,2013-03-02 19:29:00,
2013-03-02 13:34:00,27.3,24.0,30.26,South,184,13.2,14.7,92,0.00,,,0.00,TxWx,2013-03-02 19:34:00,
2013-03-02 13:39:00,27.3,23.0,30.27,SSW,192,13.8,13.8,89,0.00,,,0.00,TxWx,2013-03-02 19:39:00,
2013-03-02 13:45:00,27.2,23.0,30.26,South,182,12.0,12.0,88,0.00,,,0.00,TxWx,2013-03-02 19:45:00,
2013-03-02 13:50:00,27.3,23.0,30.26,South,185,18.9,18.9,89,0.00,,,0.00,TxWx,2013-03-02 19:50:00,
2013-03-02 13:55:00,27.1,23.0,30.26,South,188,13.8,14.1,89,0.00,,,0.00,TxWx,2013-03-02 19:55:00,
2013-03-02 14:00:00,27.1,24.0,30.26,South,185,14.1,14.7,92,0.00,,,0.00,TxWx,2013-03-02 20:00:00,
2013-03-02 14:05:00,27.1,24.0,30.27,South,173,13.5,14.4,92,0.00,,,0.00,TxWx,2013-03-02 20:05:00,
2013-03-02 14:10:00,27.1,23.0,30.27,South,178,12.9,15.0,89,0.00,,,0.00,TxWx,2013-03-02 20:10:00,
2013-03-02 14:16:00,27.2,23.0,30.26,South,188,16.2,16.8,88,0.00,,,0.00,TxWx,2013-03-02 20:16:00,
2013-03-02 14:21:00,27.2,23.0,30.26,South,187,14.7,15.3,88,0.00,,,0.00,TxWx,2013-03-02 20:21:00,
2013-03-02 14:26:00,27.3,23.0,30.26,South,189,14.7,15.3,87,0.00,,,0.00,TxWx,2013-03-02 20:26:00,
2013-03-02 14:31:00,27.3,23.0,30.26,South,186,13.8,16.2,87,0.00,,,0.00,TxWx,2013-03-02 20:31:00,
2013-03-02 14:36:00,27.4,23.0,30.26,South,180,13.8,15.6,87,0.00,,,0.00,TxWx,2013-03-02 20:36:00,
2013-03-02 14:41:00,27.6,24.0,30.26,South,186,10.8,12.3,87,0.00,,,0.00,TxWx,2013-03-02 20:41:00,
2013-03-02 14:47:00,27.8,24.0,30.26,South,189,8.7,8.7,88,0.00,,,0.00,TxWx,2013-03-02 20:47:00,
2013-03-02 14:52:00,27.8,24.0,30.26,South,179,13.2,13.2,87,0.00,,,0.00,TxWx,2013-03-02 20:52:00,
2013-03-02 14:57:00,27.9,23.0,30.26,South,185,12.9,15.0,87,0.00,,,0.00,TxWx,2013-03-02 20:57:00,
2013-03-02 15:02:00,28.0,23.0,30.26,SSW,193,12.6,12.6,86,0.00,,,0.00,TxWx,2013-03-02 21:02:00,
2013-03-02 15:07:00,28.1,23.0,30.26,South,189,12.9,12.9,87,0.00,,,0.00,TxWx,2013-03-02 21:07:00,
2013-03-02 15:12:00,28.0,23.0,30.26,South,183,10.5,11.4,86,0.00,,,0.00,TxWx,2013-03-02 21:12:00,
2013-03-02 15:17:00,28.1,24.0,30.26,South,191,10.2,10.2,88,0.00,,,0.00,TxWx,2013-03-02 21:17:00,
2013-03-02 15:23:00,28.1,23.0,30.26,SSW,195,19.2,19.2,84,0.00,,,0.00,TxWx,2013-03-02 21:23:00,
2013-03-02 15:28:00,28.3,23.0,30.26,SSW,202,8.4,9.3,86,0.00,,,0.00,TxWx,2013-03-02 21:28:00,
2013-03-02 15:33:00,28.3,23.0,30.26,SSW,196,16.2,16.2,84,0.00,,,0.00,TxWx,2013-03-02 21:33:00,
2013-03-02 15:39:00,28.3,23.0,30.27,SSW,194,12.3,12.3,83,0.00,,,0.00,TxWx,2013-03-02 21:39:00,
2013-03-02 15:44:00,28.4,23.0,30.27,South,178,12.0,12.0,84,0.00,,,0.00,TxWx,2013-03-02 21:44:00,
2013-03-02 15:49:00,28.2,22.0,30.27,South,188,15.0,15.9,83,0.00,,,0.00,TxWx,2013-03-02 21:49:00,
2013-03-02 15:54:00,28.3,23.0,30.27,South,188,14.4,14.4,84,0.00,,,0.00,TxWx,2013-03-02 21:54:00,
2013-03-02 15:59:00,28.2,22.0,30.27,South,187,17.7,17.7,83,0.00,,,0.00,TxWx,2013-03-02 21:59:00,
2013-03-02 16:04:00,28.1,23.0,30.27,South,181,17.1,17.1,83,0.00,,,0.00,TxWx,2013-03-02 22:04:00,
2013-03-02 16:10:00,28.1,22.0,30.27,South,190,13.8,14.1,82,0.00,,,0.00,TxWx,2013-03-02 22:10:00,
2013-03-02 16:15:00,28.2,22.0,30.27,South,183,12.3,13.2,82,0.00,,,0.00,TxWx,2013-03-02 22:15:00,
2013-03-02 16:20:00,28.1,22.0,30.27,South,188,16.5,17.4,82,0.00,,,0.00,TxWx,2013-03-02 22:20:00,
2013-03-02 16:25:00,28.0,22.0,30.27,South,190,9.0,11.1,83,0.00,,,0.00,TxWx,2013-03-02 22:25:00,
2013-03-02 16:30:00,28.0,22.0,30.27,South,182,15.3,15.3,81,0.00,,,0.00,TxWx,2013-03-02 22:30:00,
2013-03-02 16:35:00,28.1,22.0,30.28,South,183,12.6,12.9,81,0.00,,,0.00,TxWx,2013-03-02 22:35:00,
2013-03-02 16:40:00,28.0,22.0,30.28,South,183,15.0,16.2,81,0.00,,,0.00,TxWx,2013-03-02 22:40:00,
2013-03-02 16:46:00,27.9,22.0,30.28,South,181,9.6,12.0,83,0.00,,,0.00,TxWx,2013-03-02 22:46:00,
2013-03-02 16:51:00,27.8,22.0,30.28,South,185,13.8,17.7,82,0.00,,,0.00,TxWx,2013-03-02 22:51:00,
2013-03-02 16:56:00,27.7,22.0,30.28,South,189,12.3,13.8,81,0.00,,,0.00,TxWx,2013-03-02 22:56:00,
2013-03-02 17:01:00,27.7,22.0,30.28,South,178,17.4,17.4,81,0.00,,,0.00,TxWx,2013-03-02 23:01:00,
2013-03-02 17:06:00,27.6,22.0,30.28,South,181,15.0,15.3,80,0.00,,,0.00,TxWx,2013-03-02 23:06:00,
2013-03-02 17:11:00,27.6,22.0,30.28,South,188,14.7,15.6,81,0.00,,,0.00,TxWx,2013-03-02 23:11:00,
2013-03-02 17:16:00,27.7,22.0,30.28,South,181,11.1,13.5,80,0.00,,,0.00,TxWx,2013-03-02 23:16:00,
2013-03-02 17:21:00,27.7,21.0,30.28,South,180,17.7,17.7,80,0.00,,,0.00,TxWx,2013-03-02 23:21:00,
2013-03-02 17:27:00,27.8,22.0,30.28,South,169,12.6,16.8,81,0.00,,,0.00,TxWx,2013-03-02 23:27:00,
2013-03-02 17:32:00,27.8,22.0,30.28,South,186,8.7,10.2,81,0.00,,,0.00,TxWx,2013-03-02 23:32:00,
2013-03-02 17:37:00,27.7,22.0,30.28,South,179,14.7,14.7,81,0.00,,,0.00,TxWx,2013-03-02 23:37:00,
2013-03-02 17:42:00,27.7,22.0,30.28,South,191,9.9,10.8,81,0.00,,,0.00,TxWx,2013-03-02 23:42:00,
2013-03-02 17:48:00,27.7,22.0,30.28,South,184,13.5,13.5,81,0.00,,,0.00,TxWx,2013-03-02 23:48:00,
2013-03-02 17:53:00,27.7,22.0,30.28,South,172,15.3,15.3,81,0.00,,,0.00,TxWx,2013-03-02 23:53:00,
2013-03-02 17:58:00,27.8,22.0,30.28,South,173,14.4,14.4,81,0.00,,,0.00,TxWx,2013-03-02 23:58:00,
2013-03-02 18:03:00,27.8,22.0,30.28,South,180,15.9,15.9,80,0.00,,,0.00,TxWx,2013-03-03 00:03:00,
2013-03-02 18:08:00,27.9,21.0,30.28,South,182,9.0,9.3,79,0.00,,,0.00,TxWx,2013-03-03 00:08:00,
2013-03-02 18:14:00,28.1,21.0,30.28,South,176,15.6,15.6,77,0.00,,,0.00,TxWx,2013-03-03 00:14:00,
2013-03-02 18:19:00,28.1,20.0,30.28,SSW,192,9.6,10.2,76,0.00,,,0.00,TxWx,2013-03-03 00:19:00,
2013-03-02 18:24:00,28.0,20.0,30.28,South,183,15.3,15.3,75,0.00,,,0.00,TxWx,2013-03-03 00:24:00,
2013-03-02 18:29:00,28.0,20.0,30.29,South,182,7.8,8.4,75,0.00,,,0.00,TxWx,2013-03-03 00:29:00,
2013-03-02 18:34:00,27.9,19.0,30.29,South,188,9.6,9.6,73,0.00,,,0.00,TxWx,2013-03-03 00:34:00,
2013-03-02 18:40:00,27.9,17.0,30.29,South,191,9.3,9.3,67,0.00,,,0.00,TxWx,2013-03-03 00:40:00,
2013-03-02 18:45:00,27.9,17.0,30.29,South,178,10.5,12.3,67,0.00,,,0.00,TxWx,2013-03-03 00:45:00,
2013-03-02 18:50:00,27.8,18.0,30.29,South,190,9.0,9.0,68,0.00,,,0.00,TxWx,2013-03-03 00:50:00,
2013-03-02 18:55:00,27.7,18.0,30.29,South,190,10.8,12.3,70,0.00,,,0.00,TxWx,2013-03-03 00:55:00,
2013-03-02 19:00:00,27.7,18.0,30.29,South,186,11.7,14.1,68,0.00,,,0.00,TxWx,2013-03-03 01:00:00,
2013-03-02 19:05:00,27.6,18.0,30.29,South,181,8.1,8.1,70,0.00,,,0.00,TxWx,2013-03-03 01:05:00,
2013-03-02 19:10:00,27.6,19.0,30.29,SSW,193,10.5,10.8,71,0.00,,,0.00,TxWx,2013-03-03 01:10:00,
2013-03-02 19:16:00,27.6,18.0,30.29,SSW,197,14.1,14.1,68,0.00,,,0.00,TxWx,2013-03-03 01:16:00,
2013-03-02 19:21:00,27.6,17.0,30.29,SSW,204,17.7,17.7,67,0.00,,,0.00,TxWx,2013-03-03 01:21:00,
2013-03-02 19:26:00,27.5,17.0,30.29,SSW,204,12.0,12.9,67,0.00,,,0.00,TxWx,2013-03-03 01:26:00,
2013-03-02 19:31:00,27.5,17.0,30.29,South,185,10.8,10.8,68,0.00,,,0.00,TxWx,2013-03-03 01:31:00,
2013-03-02 19:36:00,27.4,16.0,30.29,South,185,9.9,10.8,66,0.00,,,0.00,TxWx,2013-03-03 01:36:00,
2013-03-02 19:41:00,27.4,17.0,30.29,South,191,14.1,14.1,69,0.00,,,0.00,TxWx,2013-03-03 01:41:00,
2013-03-02 19:46:00,27.4,17.0,30.29,South,175,9.3,9.3,68,0.00,,,0.00,TxWx,2013-03-03 01:46:00,
2013-03-02 19:52:00,27.4,17.0,30.29,South,176,13.5,14.7,68,0.00,,,0.00,TxWx,2013-03-03 01:52:00,
2013-03-02 19:57:00,27.3,17.0,30.29,South,182,6.3,8.4,70,0.00,,,0.00,TxWx,2013-03-03 01:57:00,
2013-03-02 20:02:00,27.2,17.0,30.29,South,184,11.1,13.2,68,0.00,,,0.00,TxWx,2013-03-03 02:02:00,
2013-03-02 20:07:00,27.2,17.0,30.29,South,190,6.0,6.0,69,0.00,,,0.00,TxWx,2013-03-03 02:07:00,
2013-03-02 20:12:00,27.2,17.0,30.29,South,178,8.1,8.7,69,0.00,,,0.00,TxWx,2013-03-03 02:12:00,
2013-03-02 20:18:00,27.2,18.0,30.29,South,187,9.0,9.9,71,0.00,,,0.00,TxWx,2013-03-03 02:18:00,
2013-03-02 20:23:00,27.2,18.0,30.30,South,189,8.4,9.3,71,0.00,,,0.00,TxWx,2013-03-03 02:23:00,
2013-03-02 20:28:00,27.2,17.0,30.30,South,191,9.0,9.0,69,0.00,,,0.00,TxWx,2013-03-03 02:28:00,
2013-03-02 20:33:00,27.1,17.0,30.30,South,188,13.8,13.8,69,0.00,,,0.00,TxWx,2013-03-03 02:33:00,
2013-03-02 20:38:00,27.1,17.0,30.30,SSW,194,15.0,15.0,68,0.00,,,0.00,TxWx,2013-03-03 02:38:00,
2013-03-02 20:44:00,27.1,17.0,30.30,SSW,196,12.0,12.0,67,0.00,,,0.00,TxWx,2013-03-03 02:44:00,
2013-03-02 20:49:00,27.0,17.0,30.30,SSW,194,14.7,14.7,69,0.00,,,0.00,TxWx,2013-03-03 02:49:00,
2013-03-02 20:54:00,27.0,17.0,30.30,South,187,8.4,9.9,69,0.00,,,0.00,TxWx,2013-03-03 02:54:00,
2013-03-02 20:59:00,26.9,17.0,30.30,SSE,168,7.2,8.4,70,0.00,,,0.00,TxWx,2013-03-03 02:59:00,
2013-03-02 21:04:00,26.9,17.0,30.30,South,184,8.4,9.9,68,0.00,,,0.00,TxWx,2013-03-03 03:04:00,
2013-03-02 21:09:00,26.9,17.0,30.29,South,183,9.6,9.6,68,0.00,,,0.00,TxWx,2013-03-03 03:09:00,
2013-03-02 21:14:00,26.9,17.0,30.29,South,181,8.7,8.7,68,0.00,,,0.00,TxWx,2013-03-03 03:14:00,
2013-03-02 21:19:00,26.8,17.0,30.29,South,178,9.0,9.6,70,0.00,,,0.00,TxWx,2013-03-03 03:19:00,
2013-03-02 21:24:00,26.8,18.0,30.29,South,179,9.6,10.5,71,0.00,,,0.00,TxWx,2013-03-03 03:24:00,
2013-03-02 21:30:00,26.9,18.0,30.29,South,181,9.6,10.5,71,0.00,,,0.00,TxWx,2013-03-03 03:30:00,
2013-03-02 21:35:00,26.8,18.0,30.29,South,176,17.1,18.0,71,0.00,,,0.00,TxWx,2013-03-03 03:35:00,
2013-03-02 21:40:00,26.9,17.0,30.29,South,171,14.1,14.1,70,0.00,,,0.00,TxWx,2013-03-03 03:40:00,
2013-03-02 21:45:00,26.9,17.0,30.29,South,171,8.7,8.7,70,0.00,,,0.00,TxWx,2013-03-03 03:45:00,
2013-03-02 21:51:00,26.8,18.0,30.29,South,171,8.1,9.6,71,0.00,,,0.00,TxWx,2013-03-03 03:51:00,
2013-03-02 21:56:00,26.8,18.0,30.29,SSE,165,11.1,11.7,71,0.00,,,0.00,TxWx,2013-03-03 03:56:00,
2013-03-02 22:01:00,26.8,18.0,30.29,South,169,12.0,13.2,70,0.00,,,0.00,TxWx,2013-03-03 04:01:00,
2013-03-02 22:06:00,26.8,18.0,30.28,South,172,7.8,7.8,70,0.00,,,0.00,TxWx,2013-03-03 04:06:00,
2013-03-02 22:11:00,26.8,17.0,30.28,South,177,15.0,15.6,68,0.00,,,0.00,TxWx,2013-03-03 04:11:00,
2013-03-02 22:17:00,26.7,17.0,30.28,South,171,12.0,12.3,69,0.00,,,0.00,TxWx,2013-03-03 04:17:00,
2013-03-02 22:22:00,26.7,17.0,30.28,South,175,9.3,9.3,69,0.00,,,0.00,TxWx,2013-03-03 04:22:00,
2013-03-02 22:27:00,26.7,17.0,30.28,South,174,11.1,11.1,70,0.00,,,0.00,TxWx,2013-03-03 04:27:00,
2013-03-02 22:32:00,26.6,18.0,30.28,South,173,9.9,10.8,71,0.00,,,0.00,TxWx,2013-03-03 04:32:00,
2013-03-02 22:37:00,26.5,18.0,30.28,South,170,12.0,12.0,71,0.00,,,0.00,TxWx,2013-03-03 04:37:00,
2013-03-02 22:43:00,26.5,18.0,30.28,SSE,167,5.1,6.3,71,0.00,,,0.00,TxWx,2013-03-03 04:43:00,
2013-03-02 22:48:00,26.5,17.0,30.28,SSE,167,5.7,7.2,72,0.00,,,0.00,TxWx,2013-03-03 04:48:00,
2013-03-02 22:53:00,26.4,17.0,30.28,SSE,164,6.9,7.2,71,0.00,,,0.00,TxWx,2013-03-03 04:53:00,
2013-03-02 22:58:00,26.4,17.0,30.28,South,181,6.0,6.0,72,0.00,,,0.00,TxWx,2013-03-03 04:58:00,
2013-03-02 23:00:00,26.3,17.0,30.28,South,173,7.2,7.5,71,0.00,,,0.00,TxWx,2013-03-03 05:00:00,
2013-03-02 23:01:00,26.3,17.0,30.28,SSE,167,6.6,6.9,71,0.00,,,0.00,TxWx,2013-03-03 05:01:00,
2013-03-02 23:03:00,26.3,17.0,30.28,South,169,8.7,9.3,71,0.00,,,0.00,TxWx,2013-03-03 05:03:00,
2013-03-02 23:08:00,26.2,17.0,30.27,South,169,8.7,9.9,71,0.00,,,0.00,TxWx,2013-03-03 05:08:00,
2013-03-02 23:13:00,26.2,17.0,30.28,South,178,6.3,7.5,71,0.00,,,0.00,TxWx,2013-03-03 05:13:00,
2013-03-02 23:18:00,26.1,17.0,30.28,SSE,151,6.3,6.6,70,0.00,,,0.00,TxWx,2013-03-03 05:18:00,
2013-03-02 23:23:00,26.0,17.0,30.28,South,171,9.3,9.9,70,0.00,,,0.00,TxWx,2013-03-03 05:23:00,
2013-03-02 23:28:00,26.0,17.0,30.28,South,173,6.6,7.2,71,0.00,,,0.00,TxWx,2013-03-03 05:28:00,
2013-03-02 23:34:00,25.9,17.0,30.28,South,169,9.6,9.6,70,0.00,,,0.00,TxWx,2013-03-03 05:34:00,
2013-03-02 23:39:00,25.9,17.0,30.28,SSE,166,3.0,3.6,71,0.00,,,0.00,TxWx,2013-03-03 05:39:00,
2013-03-02 23:44:00,25.9,17.0,30.28,SSE,168,7.2,7.2,70,0.00,,,0.00,TxWx,2013-03-03 05:44:00,
2013-03-02 23:49:00,25.8,17.0,30.28,South,171,7.2,7.2,70,0.00,,,0.00,TxWx,2013-03-03 05:49:00,
2013-03-02 23:55:00,25.7,17.0,30.27,SSE,160,2.4,2.7,71,0.00,,,0.00,TxWx,2013-03-03 05:55:00,